Location: Cluny
(50.9333°N, 112.8167°W)
Time: 23:15:48
(UTC-06:00)

Amateur Radio Satellites - All Passes

Search period start: 29 June 2015 22:45
Search period end: 30 June 2015 22:45
Location: Cluny, 50.9333°N, 112.8167°W

Satellite Date Start Highest point End Downlink Frequencies (MHz)
Time Altitude Azimuth
ESTCUBE 1 29 Jun 22:47:20 22:51:03 26° 63° (ENE) 22:54:51 437.505/2401.250
UKube-1 29 Jun 22:47:35 22:51:51 57° 70° (ENE) 22:56:09 .
Oscar 11 29 Jun 22:51:46 22:55:45 35° 264° (W) 22:59:43 145.826/435.025
SEEDS 29 Jun 22:54:51 22:56:52 13° 275° (W) 22:58:43 437.485
SO-50 29 Jun 22:56:29 22:59:49 18° 352° (N) 23:03:09 436.795
SPROUT 29 Jun 22:59:17 22:59:54 10° 54° (NE) 23:00:43 437.525
UWE-3 29 Jun 23:07:54 23:11:45 31° 265° (W) 23:15:32 435.000/436.395/437.385
UNISAT 6 29 Jun 23:08:09 23:10:57 17° 89° (E) 23:13:55 437.425
CUBEBUG 1 29 Jun 23:09:03 23:13:02 33° 66° (ENE) 23:17:03 437.445
FUNcube-1 29 Jun 23:09:33 23:13:31 38° 263° (W) 23:17:27 145.935
50 SAT 29 Jun 23:11:08 23:14:55 61° 73° (ENE) 23:18:44 437.505
AUBIESAT-1 29 Jun 23:13:41 23:17:28 46° 296° (WNW) 23:21:33 437.475
AAUSAT CUBESAT 2 29 Jun 23:21:07 23:21:32 10° 277° (W) 23:21:42 437.432
QB50P1 29 Jun 23:24:36 23:25:20 10° 84° (E) 23:26:20 145.935-145.965
VELOX 1 29 Jun 23:24:43 23:29:12 78° 72° (ENE) 23:33:41 145.980
HUMSAT D 29 Jun 23:33:16 23:37:13 44° 261° (W) 23:41:11 437.325/437.525
NANOSAT C BR1 29 Jun 23:39:35 23:41:57 15° 88° (E) 23:44:28 145.865
M-CUBED/EXP-1 PRIME 29 Jun 23:43:21 23:46:31 23° 301° (WNW) 23:49:49 437.505
CUBEBUG 2 29 Jun 23:44:22 23:46:30 13° 274° (W) 23:48:26 437.445
POLYITAN 1 29 Jun 23:46:16 23:49:07 18° 89° (E) 23:52:04 437.675
DUCHIFAT 1 29 Jun 23:48:05 23:50:54 18° 89° (E) 23:53:48 145.980
ANTELSAT 29 Jun 23:51:42 23:55:49 42° 98° (E) 00:00:01 437.575/2403.000
Cosmos 2499 29 Jun 23:52:40 00:00:09 65° 265° (W) 00:08:10 435.465 / 435.565
PCSat 29 Jun 23:52:41 23:56:28 19° 20° (NNE) 00:00:19 145.827
DX 1 29 Jun 23:55:07 23:59:06 32° 265° (W) 00:03:03 434.975-435.025
GONETS M04 29 Jun 23:58:18 00:03:58 19° 286° (WNW) 00:09:15
TISAT 1 29 Jun 23:58:46 00:02:09 24° 63° (ENE) 00:05:35 437.305
TIGRISAT 30 Jun 00:06:25 00:10:39 57° 101° (E) 00:14:58 435.000
AISAT 30 Jun 00:10:29 00:14:43 39° 263° (W) 00:18:56 437.250
ZACube-1 30 Jun 00:10:36 00:11:53 11° 275° (W) 00:12:57 437.345
QB50P2 30 Jun 00:16:11 00:20:03 34° 96° (E) 00:23:55 145.880/145.840
POPSAT HIP 1 30 Jun 00:18:18 00:22:09 34° 96° (E) 00:26:01 437.405
ESTCUBE 1 30 Jun 00:23:20 00:27:44 46° 262° (W) 00:32:08 437.505/2401.250
UKube-1 30 Jun 00:25:11 00:28:22 19° 270° (W) 00:31:27 .
BUGSAT 1 30 Jun 00:28:05 00:31:40 28° 94° (E) 00:35:13 437.445
SPROUT 30 Jun 00:30:56 00:35:13 63° 72° (ENE) 00:39:30 437.525
SO-50 30 Jun 00:38:25 00:42:03 20° 16° (NNE) 00:45:45 436.795
UNISAT 6 30 Jun 00:43:55 00:48:12 62° 288° (WNW) 00:52:31 437.425
CUBEBUG 1 30 Jun 00:45:20 00:49:24 33° 265° (W) 00:53:25 437.445
50 SAT 30 Jun 00:47:49 00:50:00 14° 272° (W) 00:52:03 437.505
QB50P1 30 Jun 00:57:44 01:01:59 85° 104° (ESE) 01:06:12 145.935-145.965
VELOX 1 30 Jun 01:03:46 01:06:22 15° 273° (W) 01:08:48 145.980
BEESAT 30 Jun 01:10:37 01:14:33 27° 62° (ENE) 01:18:35 436.000
NANOSAT C BR1 30 Jun 01:14:07 01:18:19 68° 288° (WNW) 01:22:28 145.865
POLYITAN 1 30 Jun 01:21:16 01:25:25 57° 289° (WNW) 01:29:32 437.675
DUCHIFAT 1 30 Jun 01:22:58 01:27:06 57° 289° (WNW) 01:31:13 145.980
SWISSCUBE 30 Jun 01:24:52 01:29:13 36° 65° (ENE) 01:33:38 437.505
ITUPSAT 1 30 Jun 01:27:39 01:31:59 35° 65° (ENE) 01:36:22 437.325
ANTELSAT 30 Jun 01:28:51 01:32:27 26° 296° (WNW) 01:36:02 437.575/2403.000
TISAT 1 30 Jun 01:33:36 01:37:43 45° 261° (W) 01:41:49 437.305
PCSat 30 Jun 01:35:54 01:41:12 49° 44° (NE) 01:46:28 145.827
TIGRISAT 30 Jun 01:43:54 01:47:06 20° 299° (WNW) 01:50:15 435.000
Cosmos 2499 30 Jun 01:48:05 01:52:04 15° 285° (WNW) 01:55:45 435.465 / 435.565
QB50P2 30 Jun 01:52:10 01:55:54 30° 295° (WNW) 01:59:33 145.880/145.840
POPSAT HIP 1 30 Jun 01:54:17 01:57:59 29° 295° (WNW) 02:01:36 437.405
Cosmos 2491 30 Jun 01:56:41 02:03:47 27° 55° (NE) 02:11:03 435.465 / 435.565
BUGSAT 1 30 Jun 02:03:27 02:07:10 33° 294° (WNW) 02:10:48 437.445
SPROUT 30 Jun 02:08:52 02:11:46 17° 272° (W) 02:14:31 437.525
KKS-1 30 Jun 02:11:47 02:14:58 20° 60° (ENE) 02:18:15 437.445
SO-50 30 Jun 02:18:54 02:23:44 48° 39° (NE) 02:28:32 436.795
UNISAT 6 30 Jun 02:23:42 02:24:14 10° 306° (NW) 02:24:34 437.425
Oscar 19 30 Jun 02:30:49 02:35:27 34° 95° (E) 02:40:08 437.125/150
ITAMSAT 1 30 Jun 02:33:00 02:34:44 12° 82° (E) 02:36:44 435.822/435.867
QB50P1 30 Jun 02:34:58 02:37:18 14° 303° (WNW) 02:39:29 145.935-145.965
YUBILEINY 30 Jun 02:44:16 02:48:14 15° 71° (ENE) 02:52:43 435.215
BEESAT 30 Jun 02:47:32 02:52:11 50° 261° (W) 02:56:51 436.000
NANOSAT C BR1 30 Jun 02:52:24 02:53:25 11° 306° (NW) 02:54:14 145.865
SWISSCUBE 30 Jun 03:02:44 03:07:07 35° 265° (W) 03:11:30 437.505
ITUPSAT 1 30 Jun 03:05:27 03:09:52 36° 264° (W) 03:14:18 437.325
STARS 30 Jun 03:15:21 03:19:33 45° 68° (ENE) 03:23:46 437.465
AIST 1 30 Jun 03:17:05 03:20:59 30° 69° (ENE) 03:24:53
PCSat 30 Jun 03:19:34 03:24:33 37° 245° (WSW) 03:29:27 145.827
MOZHAYETS 4 30 Jun 03:29:45 03:32:12 15° 56° (ENE) 03:34:49
JAS-2 30 Jun 03:34:05 03:37:49 17° 85° (E) 03:42:06 435.910
Gurwin Techsat 1B 30 Jun 03:34:28 03:39:28 40° 96° (E) 03:44:28 435.225
RS-15 30 Jun 03:44:17 03:54:24 48° 114° (ESE) 04:04:59 29.354- 29.394
KKS-1 30 Jun 03:46:47 03:51:13 63° 258° (WSW) 03:55:41 437.445
Cosmos 2491 30 Jun 03:53:12 04:02:03 89° 258° (WSW) 04:10:48 435.465 / 435.565
SO-50 30 Jun 03:59:38 04:04:15 38° 240° (WSW) 04:08:45 436.795
AO-7 30 Jun 04:02:31 04:07:49 19° 83° (E) 04:13:28 29.400- 29.500
ITAMSAT 1 30 Jun 04:10:04 04:15:19 72° 103° (ESE) 04:20:32 435.822/435.867
Oscar 19 30 Jun 04:10:07 04:14:55 40° 295° (WNW) 04:19:39 437.125/150
HORYU 2 30 Jun 04:33:36 04:37:00 22° 91° (E) 04:40:29 437.375
YUBILEINY 30 Jun 04:34:54 04:43:22 62° 93° (E) 04:51:55 435.215
STARS 30 Jun 04:52:34 04:56:13 24° 268° (W) 04:59:48 437.465
AIST 1 30 Jun 04:54:42 04:58:40 33° 269° (W) 05:02:34
MOZHAYETS 4 30 Jun 05:04:12 05:08:47 87° 79° (E) 05:13:26
Gurwin Techsat 1B 30 Jun 05:14:33 05:19:27 37° 296° (WNW) 05:24:18 435.225
JAS-2 30 Jun 05:17:40 05:23:51 78° 104° (ESE) 05:30:52 435.910
CUBESAT XI-V 30 Jun 05:18:50 05:21:48 17° 58° (ENE) 05:24:53 437.345
ITAMSAT 1 30 Jun 05:50:21 05:54:22 22° 303° (WNW) 05:58:16 435.822/435.867
Cosmos 2491 30 Jun 05:51:16 05:57:51 24° 283° (WNW) 06:04:05 435.465 / 435.565
STRAND 1 30 Jun 05:51:39 05:54:49 17° 54° (NE) 05:58:09 437.568
AO-7 30 Jun 05:53:52 06:02:18 74° 107° (ESE) 06:10:40 29.400- 29.500
RS-15 30 Jun 05:55:30 06:06:28 69° 321° (NW) 06:17:56 29.354- 29.394
PRISM 30 Jun 06:05:17 06:07:41 15° 58° (ENE) 06:10:15 437.425
HORYU 2 30 Jun 06:09:37 06:13:57 51° 291° (WNW) 06:18:17 437.375
Cosmos 2504 30 Jun 06:17:51 06:23:53 31° 85° (E) 06:30:03 435.465 / 435.565
YUBILEINY 30 Jun 06:32:44 06:40:46 39° 297° (WNW) 06:48:45 435.215
Cubesat XI-IV 30 Jun 06:42:14 06:45:43 18° 87° (E) 06:49:23 437.490
MOZHAYETS 4 30 Jun 06:44:27 06:46:46 13° 275° (W) 06:48:54
CUBESAT XI-V 30 Jun 06:53:57 06:58:40 82° 255° (WSW) 07:03:27 437.345
JAS-2 30 Jun 07:03:38 07:08:33 26° 302° (WNW) 07:13:48 435.910
STRAND 1 30 Jun 07:28:12 07:33:22 85° 73° (ENE) 07:38:34 437.568
M-CUBED/EXP-1 PRIME 30 Jun 07:28:30 07:30:32 16° 54° (NE) 07:32:41 437.505
PRISM 30 Jun 07:38:27 07:42:38 78° 257° (WSW) 07:46:51 437.425
CUSAT 1 30 Jun 07:41:20 07:43:07 12° 86° (E) 07:45:06 437.405
AO-7 30 Jun 07:47:11 07:54:36 36° 309° (NW) 08:01:55 29.400- 29.500
CUTE-I 30 Jun 07:48:28 07:53:47 57° 101° (E) 07:59:04 437.470
DANDE 30 Jun 08:08:42 08:12:58 18° 87° (E) 08:16:58 436.750
Cosmos 2504 30 Jun 08:09:48 08:16:55 60° 286° (WNW) 08:24:02 435.465 / 435.565
RS-15 30 Jun 08:10:41 08:21:09 42° 352° (N) 08:32:04 29.354- 29.394
Cubesat XI-IV 30 Jun 08:21:09 08:26:35 82° 289° (WNW) 08:31:58 437.490
O/OREOS (USA 219) 30 Jun 08:28:00 08:30:52 17° 102° (ESE) 08:33:53 437.305
AUBIESAT-1 30 Jun 08:32:06 08:35:22 60° 67° (ENE) 08:38:47 437.475
CUBESAT XI-V 30 Jun 08:35:01 08:36:59 12° 277° (W) 08:38:43 437.345
YUBILEINY 30 Jun 08:38:24 08:41:03 11° 326° (NW) 08:43:18 435.215
M-CUBED/EXP-1 PRIME 30 Jun 09:01:50 09:05:03 50° 253° (WSW) 09:08:24 437.505
STRAND 1 30 Jun 09:10:05 09:13:21 16° 274° (W) 09:16:25 437.568
GONETS M04 30 Jun 09:12:05 09:19:04 29° 80° (E) 09:26:16
BRITE-PL 30 Jun 09:16:26 09:20:52 47° 98° (E) 09:25:00 437.365/2234.400
GOMX 1 30 Jun 09:16:39 09:20:27 29° 93° (E) 09:24:09 467.674
CUSAT 1 30 Jun 09:18:40 09:25:20 64° 99° (E) 09:30:25 437.405
AAUSAT CUBESAT 2 30 Jun 09:20:49 09:22:11 12° 85° (E) 09:23:46 437.432
ANTELSAT 30 Jun 09:22:40 09:23:44 11° 55° (NE) 09:25:00 437.575/2403.000
HO-68 30 Jun 09:26:40 09:32:55 32° 93° (E) 09:39:15 435.675
CUTE-I 30 Jun 09:29:03 09:33:36 28° 300° (WNW) 09:38:03 437.470
BEESAT 3 30 Jun 09:32:25 09:36:16 42° 123° (ESE) 09:40:11 437.485
CUTE 1.7 + AOD 2 30 Jun 09:35:25 09:39:04 27° 93° (E) 09:42:46 437.475
TIGRISAT 30 Jun 09:36:01 09:38:10 14° 57° (ENE) 09:40:26 435.000
BEESAT 2 30 Jun 09:37:50 09:41:39 39° 122° (ESE) 09:45:32 435.950
CANX-2 30 Jun 09:37:56 09:41:44 31° 95° (E) 09:45:35 2200.000
AO-7 30 Jun 09:41:11 09:45:05 14° 334° (NNW) 09:48:47 29.400- 29.500
COMPASS 1 30 Jun 09:41:18 09:44:30 21° 91° (E) 09:47:48 437.405
DANDE 30 Jun 09:48:19 09:55:49 82° 101° (ESE) 10:01:34 436.750
CUBEBUG 2 30 Jun 09:53:00 09:54:01 11° 85° (E) 09:55:16 437.445
Cubesat XI-IV 30 Jun 10:02:29 10:05:59 17° 307° (NW) 10:09:19 437.490
O/OREOS (USA 219) 30 Jun 10:05:24 10:09:51 67° 301° (WNW) 10:14:19 437.305
CINEMA 3 30 Jun 10:07:23 10:11:01 29° 94° (E) 10:14:40 145.822/145.860
Cosmos 2504 30 Jun 10:08:22 10:12:17 15° 313° (NW) 10:15:55 435.465 / 435.565
DELFI C3 30 Jun 10:09:16 10:10:46 12° 85° (E) 10:12:28 145.870
AUBIESAT-1 30 Jun 10:09:24 10:10:40 11° 267° (W) 10:11:47 437.475
UNISAT 6 30 Jun 10:11:53 10:15:32 28° 65° (ENE) 10:19:13 437.425
ZACube-1 30 Jun 10:15:45 10:17:19 12° 85° (E) 10:19:06 437.345
QB50P1 30 Jun 10:21:09 10:23:55 17° 60° (ENE) 10:26:46 145.935-145.965
DOVE 4 30 Jun 10:23:45 10:28:02 85° 103° (ESE) 10:32:11 437.250
AIST 2 30 Jun 10:24:59 10:28:47 33° 120° (ESE) 10:32:40 435.215
RS-15 30 Jun 10:25:35 10:36:36 50° 24° (NNE) 10:48:09 29.354- 29.394
SEEDS 30 Jun 10:31:06 10:35:23 78° 103° (ESE) 10:39:38 437.485
Oscar 11 30 Jun 10:33:46 10:37:34 29° 94° (E) 10:41:24 145.826/435.025
NANOSAT C BR1 30 Jun 10:36:37 10:39:56 23° 63° (ENE) 10:43:18 145.865
POLYITAN 1 30 Jun 10:43:52 10:47:25 27° 64° (ENE) 10:51:02 437.675
DUCHIFAT 1 30 Jun 10:45:00 10:48:31 26° 64° (ENE) 10:52:06 145.980
Cosmos 2499 30 Jun 10:45:42 10:50:13 19° 78° (ENE) 10:55:03 435.465 / 435.565
UWE-3 30 Jun 10:52:05 10:55:52 33° 96° (E) 10:59:43 435.000/436.395/437.385
FUNcube-1 30 Jun 10:52:37 10:56:09 26° 93° (E) 10:59:45 145.935
AAUSAT CUBESAT 2 30 Jun 10:54:15 10:58:29 88° 291° (WNW) 11:02:43 437.432
GOMX 1 30 Jun 10:54:43 10:58:41 33° 294° (WNW) 11:02:27 467.674
ISS 30 Jun 10:54:47 10:57:12 20° 144° (SE) 10:59:39 145.825
BRITE-PL 30 Jun 10:55:27 10:59:09 24° 299° (WNW) 11:02:35 437.365/2234.400
ANTELSAT 30 Jun 10:55:32 10:59:49 70° 73° (ENE) 11:04:05 437.575/2403.000
CUSAT 1 30 Jun 11:02:58 11:08:10 25° 294° (WNW) 11:12:18 437.405
GONETS M04 30 Jun 11:06:20 11:15:10 79° 282° (WNW) 11:23:59
TIGRISAT 30 Jun 11:10:03 11:14:22 88° 255° (WSW) 11:18:40 435.000
BEESAT 3 30 Jun 11:10:31 11:14:19 34° 323° (NW) 11:18:06 437.485
CUTE 1.7 + AOD 2 30 Jun 11:11:07 11:15:05 38° 292° (WNW) 11:19:02 437.475
HUMSAT D 30 Jun 11:12:30 11:15:33 20° 91° (E) 11:18:44 437.325/437.525
VELOX 1 30 Jun 11:13:04 11:13:37 10° 83° (E) 11:14:25 145.980
QB50P2 30 Jun 11:13:40 11:17:47 50° 70° (ENE) 11:21:56 145.880/145.840
CANX-2 30 Jun 11:13:49 11:17:41 33° 293° (WNW) 11:21:30 2200.000
HO-68 30 Jun 11:14:06 11:21:11 64° 294° (WNW) 11:28:14 435.675
POPSAT HIP 1 30 Jun 11:15:38 11:19:45 50° 70° (ENE) 11:23:54 437.405
BEESAT 2 30 Jun 11:15:53 11:19:45 37° 322° (NW) 11:23:38 435.950
COMPASS 1 30 Jun 11:16:22 11:20:26 47° 290° (WNW) 11:24:30 437.405
BUGSAT 1 30 Jun 11:22:34 11:26:32 41° 68° (ENE) 11:30:31 437.445
CUBEBUG 2 30 Jun 11:27:16 11:31:27 90° 98° (E) 11:35:40 437.445
DANDE 30 Jun 11:33:54 11:39:25 23° 297° (WNW) 11:43:51 436.750
DX 1 30 Jun 11:38:05 11:41:55 30° 95° (E) 11:45:46 434.975-435.025
DELFI C3 30 Jun 11:42:24 11:46:29 82° 285° (WNW) 11:50:33 145.870
CINEMA 3 30 Jun 11:44:32 11:48:18 33° 293° (WNW) 11:52:01 145.822/145.860
VERMONT LUNAR 30 Jun 11:44:50 11:45:56 11° 170° (S) 11:47:04 437.305
O/OREOS (USA 219) 30 Jun 11:47:41 11:50:12 14° 323° (NW) 11:52:38 437.305
UNISAT 6 30 Jun 11:48:12 11:52:14 37° 263° (W) 11:56:14 437.425
ZACube-1 30 Jun 11:50:09 11:54:21 83° 285° (WNW) 11:58:35 437.345
QB50P1 30 Jun 11:55:06 11:59:21 68° 258° (WSW) 12:03:36 145.935-145.965
AISAT 30 Jun 11:56:05 11:59:52 27° 94° (E) 12:03:40 437.250
DOVE 4 30 Jun 12:03:00 12:05:13 14° 303° (WNW) 12:07:17 437.250
AIST 2 30 Jun 12:03:11 12:07:18 43° 320° (NW) 12:11:25 435.215
UKube-1 30 Jun 12:05:59 12:10:14 50° 100° (E) 12:14:27 .
SEEDS 30 Jun 12:08:06 12:10:40 16° 301° (WNW) 12:13:08 437.485
Oscar 11 30 Jun 12:09:49 12:13:49 36° 293° (WNW) 12:17:47 145.826/435.025
ESTCUBE 1 30 Jun 12:11:05 12:14:54 26° 93° (E) 12:18:46 437.505/2401.250
NANOSAT C BR1 30 Jun 12:11:25 12:15:32 47° 261° (W) 12:19:39 145.865
Oscar 19 30 Jun 12:16:01 12:19:01 16° 54° (NE) 12:22:10 437.125/150
50 SAT 30 Jun 12:16:19 12:20:04 45° 99° (E) 12:23:51 437.505
POLYITAN 1 30 Jun 12:19:11 12:23:12 39° 263° (W) 12:27:12 437.675
DUCHIFAT 1 30 Jun 12:20:11 12:24:12 40° 263° (W) 12:28:12 145.980
UWE-3 30 Jun 12:28:43 12:32:23 30° 294° (WNW) 12:36:02 435.000/436.395/437.385
FUNcube-1 30 Jun 12:28:44 12:32:36 37° 292° (WNW) 12:36:27 145.935
CUBEBUG 1 30 Jun 12:28:49 12:32:46 32° 95° (E) 12:36:42 437.445
ISS 30 Jun 12:29:59 12:33:14 70° 161° (SSE) 12:36:28 145.825
AAUSAT CUBESAT 2 30 Jun 12:31:26 12:33:30 13° 303° (WNW) 12:35:25 437.432
PHONESAT 2.4 30 Jun 12:34:23 12:34:38 10° 162° (SSE) 12:34:56 2401.200-2431.200
ANTELSAT 30 Jun 12:34:35 12:37:09 15° 273° (W) 12:39:34 437.575/2403.000
Cosmos 2499 30 Jun 12:35:19 12:42:24 89° 102° (ESE) 12:49:37 435.465 / 435.565
RS-15 30 Jun 12:38:36 12:50:13 82° 232° (SW) 13:02:20 29.354- 29.394
YUBILEINY 30 Jun 12:43:37 12:46:30 12° 36° (NE) 12:49:49 435.215
VELOX 1 30 Jun 12:46:35 12:51:03 78° 104° (ESE) 12:55:28 145.980
HUMSAT D 30 Jun 12:47:35 12:51:35 47° 290° (WNW) 12:55:34 437.325/437.525
TIGRISAT 30 Jun 12:50:27 12:51:52 11° 275° (W) 12:53:04 435.000
QB50P2 30 Jun 12:50:44 12:53:58 21° 269° (W) 12:57:09 145.880/145.840
BEESAT 3 30 Jun 12:51:11 12:53:24 14° 346° (NNW) 12:55:35 437.485
POPSAT HIP 1 30 Jun 12:52:42 12:55:57 20° 269° (W) 12:59:05 437.405
BEESAT 2 30 Jun 12:56:35 12:58:55 14° 345° (NNW) 13:01:14 435.950
BUGSAT 1 30 Jun 12:58:36 13:02:09 25° 267° (W) 13:05:38 437.445
HO-68 30 Jun 13:03:00 13:07:46 19° 316° (NW) 13:12:19 435.675
CUBEBUG 2 30 Jun 13:05:34 13:07:35 13° 303° (WNW) 13:09:28 437.445
GONETS M04 30 Jun 13:07:00 13:13:46 23° 308° (NW) 13:20:16
TISAT 1 30 Jun 13:13:31 13:16:35 20° 91° (E) 13:19:44 437.305
DX 1 30 Jun 13:14:13 13:18:14 36° 294° (WNW) 13:22:11 434.975-435.025
AO-7 30 Jun 13:18:53 13:23:20 16° 31° (NNE) 13:28:02 29.400- 29.500
DELFI C3 30 Jun 13:19:23 13:20:57 12° 303° (WNW) 13:22:21 145.870
VERMONT LUNAR 30 Jun 13:20:40 13:22:05 12° 186° (S) 13:23:31 437.305
Gurwin Techsat 1B 30 Jun 13:22:53 13:26:32 20° 56° (NE) 13:30:19 435.225
ZACube-1 30 Jun 13:28:19 13:30:07 12° 303° (WNW) 13:31:46 437.345
AISAT 30 Jun 13:32:25 13:36:35 40° 293° (WNW) 13:40:41 437.250
UKube-1 30 Jun 13:42:40 13:46:06 23° 299° (WNW) 13:49:26 .
AIST 2 30 Jun 13:44:11 13:46:54 16° 342° (NNW) 13:49:34 435.215
ESTCUBE 1 30 Jun 13:47:38 13:51:58 43° 292° (WNW) 13:56:16 437.505/2401.250
SPROUT 30 Jun 13:48:29 13:52:46 62° 102° (ESE) 13:57:00 437.525
50 SAT 30 Jun 13:51:32 13:54:28 20° 297° (WNW) 13:57:19 437.505
Oscar 19 30 Jun 13:52:32 13:57:41 81° 71° (ENE) 14:02:51 437.125/150
ITAMSAT 1 30 Jun 13:54:39 13:59:10 31° 62° (ENE) 14:03:47 435.822/435.867
JAS-2 30 Jun 13:55:35 13:57:10 11° 46° (NE) 13:58:59 435.910
CUBEBUG 1 30 Jun 14:05:09 14:09:09 34° 294° (WNW) 14:13:03 437.445
ISS 30 Jun 14:06:24 14:09:39 76° 1° (N) 14:12:55 145.825
PHONESAT 2.4 30 Jun 14:09:44 14:11:49 15° 179° (S) 14:13:54 2401.200-2431.200
VELOX 1 30 Jun 14:24:15 14:27:06 17° 302° (WNW) 14:29:49 145.980
BEESAT 3 30 Jun 14:31:06 14:32:58 13° 10° (N) 14:34:52 437.485
Cosmos 2499 30 Jun 14:31:23 14:36:46 22° 305° (NW) 14:42:03 435.465 / 435.565
BEESAT 2 30 Jun 14:36:44 14:38:36 13° 8° (N) 14:40:29 435.950
YUBILEINY 30 Jun 14:38:31 14:46:38 41° 65° (ENE) 14:54:51 435.215
BEESAT 30 Jun 14:42:43 14:46:54 29° 94° (E) 14:51:07 436.000
TISAT 1 30 Jun 14:48:35 14:52:41 50° 290° (WNW) 14:56:43 437.305
RS-15 30 Jun 14:51:55 15:01:17 28° 256° (WSW) 15:10:29 29.354- 29.394
SWISSCUBE 30 Jun 14:57:23 15:01:58 42° 98° (E) 15:06:32 437.505
ITUPSAT 1 30 Jun 15:00:26 15:05:00 41° 97° (E) 15:09:34 437.325
Gurwin Techsat 1B 30 Jun 15:00:36 15:05:56 85° 253° (WSW) 15:11:19 435.225
AO-7 30 Jun 15:06:28 15:14:09 44° 55° (NE) 15:21:55 29.400- 29.500
Cosmos 2491 30 Jun 15:06:37 15:12:56 24° 77° (ENE) 15:19:33 435.465 / 435.565
AIST 2 30 Jun 15:25:04 15:27:05 13° 6° (N) 15:29:08 435.215
SPROUT 30 Jun 15:25:25 15:28:28 19° 300° (WNW) 15:31:24 437.525
ITAMSAT 1 30 Jun 15:33:29 15:38:32 47° 261° (W) 15:43:36 435.822/435.867
KKS-1 30 Jun 15:33:38 15:36:38 18° 89° (E) 15:39:43 437.445
Oscar 19 30 Jun 15:34:22 15:37:45 17° 273° (W) 15:40:58 437.125/150
JAS-2 30 Jun 15:36:08 15:41:10 56° 69° (ENE) 15:46:29 435.910
HORYU 2 30 Jun 15:36:27 15:40:30 37° 66° (ENE) 15:44:36 437.375
ISS 30 Jun 15:42:51 15:46:03 57° 201° (SSW) 15:49:14 145.825
PHONESAT 2.4 30 Jun 15:47:55 15:49:01 11° 195° (SSW) 15:50:04 2401.200-2431.200
AIST 1 30 Jun 15:53:37 15:55:50 14° 84° (E) 15:58:15
Cosmos 2504 30 Jun 16:02:26 16:07:06 18° 51° (NE) 16:12:14 435.465 / 435.565
BEESAT 3 30 Jun 16:08:40 16:12:12 27° 33° (NNE) 16:15:43 437.485
BEESAT 2 30 Jun 16:14:28 16:17:58 26° 32° (NNE) 16:21:28 435.950
BEESAT 30 Jun 16:20:20 16:24:54 42° 293° (WNW) 16:29:24 436.000
PCSat 30 Jun 16:25:46 16:28:09 13° 105° (ESE) 16:30:48 145.827
Cubesat XI-IV 30 Jun 16:34:04 16:34:52 10° 46° (NE) 16:35:54 437.490
YUBILEINY 30 Jun 16:35:24 16:43:56 58° 268° (W) 16:52:24 435.215
SWISSCUBE 30 Jun 16:35:28 16:39:42 31° 297° (WNW) 16:43:53 437.505
STARS 30 Jun 16:36:09 16:40:20 42° 98° (E) 16:44:31 437.465
ITUPSAT 1 30 Jun 16:38:31 16:42:49 32° 296° (WNW) 16:47:02 437.325
Gurwin Techsat 1B 30 Jun 16:43:51 16:46:51 15° 276° (W) 16:49:37 435.225
O/OREOS (USA 219) 30 Jun 16:52:34 16:55:26 17° 39° (NE) 16:58:23 437.305
MOZHAYETS 4 30 Jun 16:55:26 16:58:06 15° 86° (E) 17:00:55
AO-7 30 Jun 16:58:32 17:06:47 60° 257° (WSW) 17:15:03 29.400- 29.500
Cosmos 2491 30 Jun 16:59:52 17:08:44 88° 97° (E) 17:17:37 435.465 / 435.565
AIST 2 30 Jun 17:03:31 17:07:03 25° 30° (NNE) 17:10:34 435.215
KKS-1 30 Jun 17:09:19 17:13:43 62° 289° (WNW) 17:18:05 437.445
HORYU 2 30 Jun 17:13:19 17:17:13 30° 265° (W) 17:21:06 437.375
ISS 30 Jun 17:20:01 17:21:58 15° 219° (SW) 17:23:51 145.825
JAS-2 30 Jun 17:22:41 17:26:51 24° 271° (W) 17:31:03 435.910
AIST 1 30 Jun 17:28:33 17:32:57 75° 281° (WNW) 17:37:24
CUTE-I 30 Jun 17:36:44 17:41:10 28° 60° (ENE) 17:45:43 437.470
BEESAT 3 30 Jun 17:46:25 17:50:28 60° 234° (SW) 17:54:26 437.485
BEESAT 2 30 Jun 17:52:18 17:56:24 66° 233° (SW) 18:00:25 435.950
Cosmos 2504 30 Jun 17:54:41 18:02:10 68° 76° (ENE) 18:10:11 435.465 / 435.565
PCSat 30 Jun 18:05:21 18:10:44 72° 123° (ESE) 18:16:11 145.827
Cubesat XI-IV 30 Jun 18:08:43 18:13:49 46° 66° (ENE) 18:18:59 437.490
STARS 30 Jun 18:12:56 18:16:38 26° 297° (WNW) 18:20:14 437.465
HO-68 30 Jun 18:18:11 18:21:04 13° 37° (NE) 18:24:11 435.675
SO-50 30 Jun 18:19:02 18:22:44 23° 115° (ESE) 18:26:38 436.795
O/OREOS (USA 219) 30 Jun 18:31:06 18:35:38 82° 61° (ENE) 18:40:11 437.305
MOZHAYETS 4 30 Jun 18:31:17 18:35:58 78° 285° (WNW) 18:40:37
YUBILEINY 30 Jun 18:34:54 18:38:57 14° 290° (WNW) 18:42:30 435.215
AIST 2 30 Jun 18:41:50 18:46:05 77° 232° (SW) 18:50:15 435.215
CUBESAT XI-V 30 Jun 18:46:29 18:49:42 18° 88° (E) 18:53:02 437.345
KKS-1 30 Jun 18:48:31 18:49:33 11° 307° (NW) 18:50:24 437.445
GOMX 1 30 Jun 18:54:45 18:56:28 12° 54° (NE) 18:58:19 467.674
BRITE-PL 30 Jun 18:54:59 18:58:36 19° 59° (ENE) 19:02:13 437.365/2234.400
AO-7 30 Jun 18:57:33 19:01:43 14° 281° (W) 19:05:20 29.400- 29.500
Cosmos 2491 30 Jun 18:59:35 19:06:58 28° 304° (NW) 19:14:08 435.465 / 435.565
AIST 1 30 Jun 19:10:08 19:11:33 11° 304° (WNW) 19:12:45
GONETS M04 30 Jun 19:14:13 19:20:14 21° 49° (NE) 19:26:31
CUTE-I 30 Jun 19:15:41 19:20:58 58° 259° (W) 19:26:19 437.470
PRISM 30 Jun 19:18:07 19:19:04 11° 85° (E) 19:20:13 437.425
STRAND 1 30 Jun 19:34:25 19:38:08 20° 89° (E) 19:41:57 437.568
Cosmos 2504 30 Jun 19:48:45 19:55:08 30° 276° (W) 20:01:40 435.465 / 435.565
Cubesat XI-IV 30 Jun 19:49:18 19:54:07 32° 266° (W) 19:58:55 437.490
PCSat 30 Jun 19:49:50 19:54:40 31° 325° (NW) 19:59:28 145.827
CUSAT 1 30 Jun 19:52:15 19:55:16 47° 73° (ENE) 19:57:51 437.405
SEEDS 30 Jun 19:54:28 19:56:45 15° 58° (ENE) 19:59:09 437.485
DOVE 4 30 Jun 19:57:25 20:01:10 23° 63° (ENE) 20:04:52 437.250
SO-50 30 Jun 19:58:06 20:02:54 69° 315° (NW) 20:07:51 436.795
HO-68 30 Jun 20:00:32 20:07:06 42° 59° (ENE) 20:13:45 435.675
MOZHAYETS 4 30 Jun 20:10:07 20:12:29 14° 305° (NW) 20:14:42
O/OREOS (USA 219) 30 Jun 20:11:58 20:14:30 14° 260° (W) 20:16:52 437.305
AAUSAT CUBESAT 2 30 Jun 20:16:05 20:18:39 16° 60° (ENE) 20:21:20 437.432
AIST 2 30 Jun 20:22:27 20:23:58 11° 249° (WSW) 20:25:18 435.215
CUBESAT XI-V 30 Jun 20:22:57 20:27:40 66° 288° (WNW) 20:32:18 437.345
DANDE 30 Jun 20:26:11 20:29:41 88° 72° (ENE) 20:32:30 436.750
Cosmos 2499 30 Jun 20:28:12 20:30:40 12° 43° (NE) 20:33:33 435.465 / 435.565
GOMX 1 30 Jun 20:28:43 20:33:50 61° 72° (ENE) 20:38:39 467.674
BRITE-PL 30 Jun 20:31:03 20:36:36 87° 251° (WSW) 20:41:50 437.365/2234.400
CUTE 1.7 + AOD 2 30 Jun 20:33:02 20:36:53 36° 68° (ENE) 20:40:48 437.475
CANX-2 30 Jun 20:35:35 20:39:33 42° 69° (ENE) 20:43:34 2200.000
COMPASS 1 30 Jun 20:37:17 20:40:48 28° 65° (ENE) 20:44:24 437.405
PRISM 30 Jun 20:51:01 20:55:16 86° 104° (ESE) 20:59:28 437.425
CUBEBUG 2 30 Jun 20:55:17 20:58:17 19° 62° (ENE) 21:01:20 437.445
DELFI C3 30 Jun 21:01:12 21:03:35 16° 60° (ENE) 21:06:07 145.870
GONETS M04 30 Jun 21:10:22 21:19:06 71° 76° (ENE) 21:27:46
STRAND 1 30 Jun 21:12:44 21:17:54 69° 290° (WNW) 21:23:01 437.568
CINEMA 3 30 Jun 21:13:39 21:18:03 51° 71° (ENE) 21:22:17 145.822/145.860
ZACube-1 30 Jun 21:16:10 21:19:09 19° 62° (ENE) 21:22:12 437.345
SEEDS 30 Jun 21:27:50 21:32:01 80° 257° (WSW) 21:36:14 437.485
UKube-1 30 Jun 21:32:15 21:34:15 13° 55° (NE) 21:36:25 .
Oscar 11 30 Jun 21:33:14 21:37:17 42° 69° (ENE) 21:41:23 145.826/435.025
DOVE 4 30 Jun 21:33:49 21:38:41 56° 260° (W) 21:43:17 437.250
PCSat 30 Jun 21:36:37 21:39:50 15° 350° (N) 21:43:00 145.827
SO-50 30 Jun 21:40:20 21:44:17 23° 338° (NNW) 21:48:16 436.795
AUBIESAT-1 30 Jun 21:41:38 21:44:50 22° 100° (E) 21:48:16 437.475
HO-68 30 Jun 21:47:49 21:54:46 52° 260° (W) 22:01:44 435.675
AAUSAT CUBESAT 2 30 Jun 21:49:41 21:53:49 69° 259° (W) 21:57:58 437.432
FUNcube-1 30 Jun 21:53:07 21:57:02 39° 69° (ENE) 22:00:57 145.935
UWE-3 30 Jun 21:53:58 21:58:06 51° 71° (ENE) 22:02:12 435.000/436.395/437.385
CUBESAT XI-V 30 Jun 22:02:26 22:04:17 12° 307° (NW) 22:05:57 437.345
GOMX 1 30 Jun 22:08:17 22:12:19 22° 270° (W) 22:16:06 467.674
HUMSAT D 30 Jun 22:09:01 22:12:30 28° 66° (ENE) 22:16:03 437.325/437.525
CUTE 1.7 + AOD 2 30 Jun 22:09:15 22:12:54 27° 267° (W) 22:16:31 437.475
M-CUBED/EXP-1 PRIME 30 Jun 22:11:22 22:15:14 48° 106° (ESE) 22:19:26 437.505
CANX-2 30 Jun 22:12:13 22:15:40 24° 268° (W) 22:19:05 2200.000
BRITE-PL 30 Jun 22:12:31 22:15:51 16° 275° (W) 22:18:52 437.365/2234.400
COMPASS 1 30 Jun 22:12:33 22:16:23 35° 264° (W) 22:20:15 437.405
VELOX 1 30 Jun 22:14:02 22:17:12 20° 60° (ENE) 22:20:27 145.980
Cosmos 2499 30 Jun 22:19:01 22:26:14 46° 69° (ENE) 22:34:00 435.465 / 435.565
PRISM 30 Jun 22:27:48 22:30:08 14° 303° (WNW) 22:32:21 437.425
CUBEBUG 2 30 Jun 22:30:23 22:34:40 58° 259° (W) 22:38:51 437.445
DELFI C3 30 Jun 22:34:15 22:38:15 68° 259° (WSW) 22:42:17 145.870
